| time (UTC) | temp C | wind direction | speed KPH | gust KPH | rain 1hr cm | rain 24hr cm | rain mn cm | humidity % | barometer mb |
| 20260510113016 | 3 | 0.0 | 3.2 | 0.00 | 0.00 | 0.00 | 66 | 1018.6 | |
| 20260510110118 | 3 | 0.0 | 8.0 | 0.00 | 0.00 | 0.00 | 66 | 1018.5 | |
| 20260510103038 | 4 | 248 | 1.6 | 9.7 | 0.00 | 0.00 | 0.00 | 63 | 1018.3 |
| 20260510100016 | 4 | 225 | 1.6 | 6.4 | 0.00 | 0.00 | 0.00 | 64 | 1018.1 |
| 20260510093118 | 3 | 225 | 1.6 | 4.8 | 0.00 | 0.00 | 0.00 | 64 | 1017.6 |
| 20260510090017 | 4 | 0.0 | 6.4 | 0.00 | 0.00 | 0.00 | 63 | 1017.3 | |
| 20260510083017 | 5 | 0.0 | 4.8 | 0.00 | 0.00 | 0.00 | 62 | 1017.1 | |
| 20260510080017 | 5 | 203 | 3.2 | 8.0 | 0.00 | 0.00 | 0.00 | 62 | 1016.8 |
| 20260510073017 | 5 | 270 | 1.6 | 9.7 | 0.00 | 0.00 | 0.00 | 57 | 1016.7 |
| 20260510070016 | 6 | 315 | 1.6 | 9.7 | 0.00 | 0.00 | 0.00 | 56 | 1016.5 |
| 20260510063016 | 6 | 0.0 | 3.2 | 0.00 | 0.00 | 0.00 | 55 | 1016.4 | |
| 20260510060016 | 7 | 315 | 1.6 | 6.4 | 0.00 | 0.00 | 0.00 | 51 | 1016.5 |
| 20260510053016 | 7 | 338 | 6.4 | 8.0 | 0.00 | 0.00 | 0.00 | 49 | 1016.4 |
| 20260510050016 | 7 | 338 | 4.8 | 8.0 | 0.00 | 0.00 | 0.00 | 49 | 1016.1 |
| 20260510043036 | 8 | 338 | 6.4 | 8.0 | 0.00 | 0.00 | 0.00 | 47 | 1016.1 |
| 20260510040018 | 8 | 338 | 6.4 | 9.7 | 0.00 | 0.00 | 0.00 | 46 | 1015.9 |
| 20260510033017 | 8 | 338 | 9.7 | 12.9 | 0.00 | 0.00 | 0.00 | 45 | 1015.7 |
| 20260510030016 | 9 | 338 | 11.3 | 16.1 | 0.00 | 0.00 | 0.00 | 43 | 1015.3 |
| 20260510023017 | 10 | 338 | 12.9 | 17.7 | 0.00 | 0.00 | 0.00 | 40 | 1014.6 |
| 20260510020017 | 11 | 338 | 19.3 | 33.8 | 0.00 | 0.00 | 0.00 | 36 | 1014.0 |
| 20260510013017 | 12 | 338 | 24.1 | 35.4 | 0.00 | 0.00 | 0.00 | 33 | 1013.6 |
| 20260510010017 | 13 | 338 | 25.7 | 37.0 | 0.00 | 0.00 | 0.00 | 31 | 1013.1 |
| 20260510003016 | 15 | 338 | 29.0 | 41.8 | 0.00 | 0.00 | 0.00 | 28 | 1012.8 |
| 20260510000037 | 15 | 338 | 27.4 | 40.2 | 0.00 | 0.00 | 0.00 | 28 | 1012.6 |
| 20260509233037 | 15 | 338 | 30.6 | 46.7 | 0.00 | 0.00 | 0.00 | 26 | 1012.2 |
| 20260509230016 | 16 | 338 | 33.8 | 51.5 | 0.00 | 0.00 | 0.00 | 24 | 1011.8 |
| 20260509223016 | 16 | 338 | 35.4 | 51.5 | 0.00 | 0.00 | 0.00 | 24 | 1011.3 |
| 20260509220037 | 16 | 338 | 33.8 | 49.9 | 0.00 | 0.00 | 0.00 | 24 | 1011.2 |
| 20260509213016 | 16 | 338 | 35.4 | 51.5 | 0.00 | 0.00 | 0.00 | 23 | 1011.0 |
| 20260509210016 | 16 | 338 | 37.0 | 53.1 | 0.00 | 0.00 | 0.00 | 24 | 1010.6 |
| 20260509203016 | 16 | 338 | 35.4 | 57.9 | 0.00 | 0.00 | 0.00 | 25 | 1010.4 |
| 20260509200016 | 16 | 338 | 35.4 | 56.3 | 0.00 | 0.00 | 0.00 | 28 | 1010.2 |
| 20260509193036 | 17 | 338 | 33.8 | 56.3 | 0.00 | 0.00 | 0.00 | 30 | 1009.9 |
| 20260509190036 | 16 | 338 | 33.8 | 54.7 | 0.00 | 0.00 | 0.00 | 31 | 1009.8 |
| 20260509183037 | 16 | 338 | 33.8 | 56.3 | 0.00 | 0.00 | 0.00 | 33 | 1009.7 |
| 20260509180038 | 16 | 338 | 33.8 | 56.3 | 0.00 | 0.00 | 0.00 | 32 | 1009.4 |
| 20260509173018 | 16 | 338 | 33.8 | 56.3 | 0.00 | 0.00 | 0.00 | 37 | 1009.1 |
| 20260509170038 | 15 | 338 | 33.8 | 53.1 | 0.00 | 0.00 | 0.00 | 38 | 1009.0 |
| 20260509163017 | 15 | 338 | 32.2 | 53.1 | 0.00 | 0.00 | 0.00 | 41 | 1008.8 |
| 20260509160017 | 13 | 338 | 33.8 | 53.1 | 0.00 | 0.00 | 0.00 | 46 | 1008.5 |
| 20260509153059 | 13 | 338 | 32.2 | 46.7 | 0.00 | 0.00 | 0.00 | 55 | 1008.2 |
| 20260509150018 | 13 | 338 | 30.6 | 46.7 | 0.00 | 0.00 | 0.00 | 60 | 1008.0 |
| 20260509143017 | 12 | 338 | 30.6 | 48.3 | 0.00 | 0.00 | 0.00 | 66 | 1007.6 |
| 20260509140017 | 12 | 338 | 35.4 | 46.7 | 0.00 | 0.00 | 0.00 | 72 | 1007.2 |
| 20260509133018 | 12 | 338 | 33.8 | 46.7 | 0.00 | 0.00 | 0.00 | 74 | 1006.5 |
| 20260509130017 | 12 | 315 | 30.6 | 41.8 | 0.00 | 0.00 | 0.00 | 77 | 1005.7 |
| 20260509123016 | 11 | 293 | 22.5 | 35.4 | 0.00 | 0.00 | 0.00 | 74 | 1005.5 |
| 20260509120017 | 10 | 293 | 6.4 | 20.9 | 0.00 | 0.00 | 0.00 | 71 | 1005.0 |